Wind_Speed
15 15 14 14 14 13 12 11 11 11 11 10 10 10 10 9 9 9 8 8 8 8 8 8 8 7 7 7 7 7 7 7 7 7 7 7 7 6 7 6 6 7 7
16 16 16 15 15 14 13 13 12 12 12 11 11 10 10 10 10 9 9 9 9 8 8 8 8 8 8 7 7 8 7 7 8 8 7 7 7 7 7 8 8 8 7
17 17 17 16 16 15 15 14 14 13 13 12 12 12 11 11 11 11 11 11 10 10 9 10 9 9 9 9 8 9 9 8 8 9 9 8 8 8 8 8 8 9 9
18 18 18 18 17 16 16 16 15 15 14 14 13 13 13 13 12 12 12 12 11 11 11 11 11 10 11 11 11 10 10 10 10 10 10 10 9 9 9 9 9 10 10
19 19 19 18 18 17 17 17 16 15 15 15 15 15 15 15 14 13 13 13 13 12 12 12 12 12 11 12 12 12 12 12 11 11 11 11 11 10 10 10 10 10 11
20 20 20 19 19 18 18 17 17 16 16 16 16 16 16 16 16 16 15 15 14 14 14 13 13 13 13 12 12 12 13 13 12 12 13 13 12 12 11 11 11 11 12
21 21 21 21 21 20 20 19 19 18 18 17 17 17 17 18 18 17 17 16 16 16 15 15 15 15 14 14 13 13 14 14 13 13 14 14 14 13 13 13 13 13 13
22 22 22 22 22 22 21 21 21 20 20 20 20 20 20 19 19 19 18 18 18 18 17 17 17 17 16 15 15 15 15 15 15 15 15 15 15 15 15 15 14 14 14
24 24 23 24 23 23 23 23 23 22 22 22 21 21 21 21 21 21 21 20 20 20 20 19 19 19 18 18 17 17 16 16 17 17 17 17 17 17 17 16 16 16 15
25 25 25 25 25 25 25 25 25 24 24 23 23 23 23 23 22 22 23 22 22 22 22 21 21 21 21 20 19 18 18 18 18 18 18 19 19 18 18 18 18 18 17
27 27 26 26 27 27 27 27 27 27 26 25 25 25 25 25 24 25 24 24 24 24 24 23 23 23 23 22 21 20 20 19 20 20 20 20 20 21 20 20 20 19 19
29 29 28 28 28 28 29 29 29 28 28 27 27 26 26 26 26 26 26 26 26 26 26 25 25 25 24 24 23 23 22 22 21 22 22 21 22 22 22 22 22 22 21
31 30 31 31 30 30 30 30 30 30 30 30 29 29 28 28 28 28 28 27 27 27 27 27 26 26 26 26 25 25 24 24 24 23 23 23 24 24 24 24 24 24 23
33 32 33 33 33 32 32 32 32 32 32 32 31 31 31 30 30 29 29 29 29 29 28 28 28 28 27 27 27 26 26 26 26 25 25 25 25 26 26 26 26 26 25
34 34 34 34 34 34 34 33 34 33 33 33 33 32 32 32 32 31 31 31 31 31 31 30 30 30 29 29 29 28 28 28 28 27 27 28 28 27 27 28 28 27 27
35 35 35 35 35 35 35 35 35 35 35 34 34 34 34 34 34 34 34 33 33 33 33 32 32 32 31 31 31 31 31 30 30 30 30 30 30 29 29 29 30 30 30
37 37 37 37 36 36 36 37 37 37 37 36 37 37 37 37 36 36 36 36 35 35 35 35 34 34 33 33 33 32 33 33 32 33 32 32 32 32 32 31 31 31 32
38 38 38 38 37 37 37 38 38 38 38 38 38 38 39 39 39 39 38 38 37 37 37 37 37 36 36 35 35 35 35 35 34 34 34 34 34 34 34 33 33 33 33
39 39 39 39 39 39 39 39 39 39 39 39 39 39 40 40 40 40 40 40 39 39 38 38 38 38 38 38 37 37 37 37 36 36 36 36 36 36 36 36 35 35 35
41 41 41 40 40 40 40 40 40 40 40 40 40 40 39 40 40 40 40 40 40 40 40 40 40 40 40 39 39 39 39 39 38 38 37 37 37 37 37 37 37 37 37
44 43 42 42 41 42 41 41 41 41 41 40 40 39 39 39 40 40 40 40 40 40 41 41 41 41 41 41 41 41 40 40 40 40 40 39 39 39 39 38 39 39 39
45 45 44 44 44 44 43 43 43 42 42 41 41 41 40 40 40 39 40 40 40 40 41 41 41 41 42 42 42 42 42 42 42 42 41 41 41 41 41 40 40 41 41
45 45 46 46 46 46 46 45 44 44 43 43 43 43 42 42 41 41 41 40 40 41 41 40 41 42 42 42 43 43 43 44 43 43 43 43 43 42 42 42 42 42 42
46 46 46 46 46 47 46 45 45 45 44 44 43 43 44 43 43 41 42 41 41 41 41 41 41 42 43 43 43 44 44 44 44 44 44 44 43 43 43 43 43 43 43
46 46 46 47 47 47 47 46 45 45 45 45 45 45 45 44 44 44 43 43 42 42 42 42 42 42 43 43 44 44 44 44 45 44 44 44 44 44 44 44 44 43 43
46 46 47 47 47 48 48 48 47 47 47 47 47 46 46 46 45 45 45 44 44 43 43 43 44 44 44 44 45 45 45 45 45 45 45 45 45 45 45 46 45 45 45
Wind_Direction
236 233 231 230 232 234 234 234 234 233 232 231 232 231 230 231 233 233 233 233 235 240 240 237 236 238 237 237 237 237 236 237 237 237 239 239 237 235 235 233 231 227 223
237 235 233 234 234 234 234 234 234 233 232 231 232 232 232 234 235 235 236 237 239 243 243 240 237 238 238 238 236 236 237 238 239 236 236 237 237 235 234 233 231 229 229
237 235 233 234 235 235 235 235 234 233 233 232 234 235 235 236 236 238 240 242 244 246 247 243 240 239 239 239 240 241 243 240 239 237 235 236 237 236 233 233 232 235 235
237 235 234 234 236 237 237 237 237 236 235 235 236 237 239 240 240 241 243 246 248 249 249 247 245 245 243 244 247 247 247 245 243 241 240 239 239 237 235 235 234 235 234
238 237 237 237 237 238 238 240 240 239 238 238 239 240 239 241 243 245 246 247 249 249 248 248 248 248 248 248 250 250 249 247 246 245 243 240 240 240 240 238 238 235 236
239 238 238 239 239 239 240 241 242 242 242 242 243 243 242 243 245 246 248 248 248 248 249 248 248 249 250 250 250 251 250 248 246 246 245 242 241 241 241 241 243 243 242
240 239 239 239 240 241 242 242 244 245 245 245 245 246 248 249 248 248 249 250 250 249 249 249 248 249 251 252 252 252 253 250 248 246 245 245 244 243 243 245 247 247 248
242 242 241 241 241 242 243 244 245 246 247 247 248 248 250 251 251 251 251 251 251 250 250 250 249 249 251 253 253 253 254 253 251 248 247 247 247 247 246 247 247 248 248
243 244 243 242 243 243 244 245 246 246 248 249 250 250 250 250 251 252 252 253 254 253 251 251 252 252 252 252 253 253 254 254 252 250 250 250 250 249 248 249 250 249 250
244 244 244 244 244 245 245 246 247 248 249 250 251 252 252 252 252 253 254 254 255 254 252 252 253 253 253 253 253 254 253 253 252 252 251 252 252 251 251 251 251 251 251
246 246 246 246 246 246 247 248 248 249 250 250 251 252 253 254 254 254 254 255 255 255 254 253 254 254 254 253 253 253 254 254 253 253 253 253 254 254 253 254 254 254 254
248 248 248 248 248 248 248 249 249 249 250 251 252 253 254 255 255 254 254 255 256 256 256 255 254 253 253 254 254 253 253 253 254 255 254 254 254 255 255 255 256 256 256
249 250 250 250 250 250 249 249 250 250 251 252 252 253 254 255 256 255 255 256 257 256 256 256 254 253 254 254 254 254 254 254 254 255 255 255 254 255 256 255 255 256 255
250 250 251 252 252 251 251 250 250 251 252 253 253 254 254 255 256 257 256 256 256 255 255 254 254 254 255 255 254 254 255 255 254 255 256 256 256 256 255 256 256 256 256
250 250 251 252 252 252 251 250 251 252 253 254 254 254 255 256 256 257 256 256 256 255 255 254 254 254 255 255 255 254 255 255 255 255 256 256 256 256 255 255 255 256 257
250 250 251 251 252 252 251 251 251 252 253 254 255 255 255 256 256 256 256 256 256 255 255 255 255 255 256 255 256 256 255 255 255 256 256 256 256 256 256 257 257 257 257
251 251 252 251 251 252 252 252 252 253 254 254 255 256 256 256 256 256 256 256 256 256 255 255 256 256 256 257 257 256 256 256 256 257 257 257 257 257 257 258 258 258 258
251 251 251 252 252 252 253 253 254 253 255 255 256 257 257 257 257 257 256 256 256 256 256 256 256 256 257 257 257 257 257 256 256 257 258 258 257 257 257 258 260 260 260
250 250 250 252 252 252 253 254 254 254 255 256 257 258 258 257 257 257 256 256 256 256 256 256 256 257 257 257 257 257 257 257 256 256 256 257 258 259 259 259 260 261 261
250 250 250 250 251 252 253 254 255 255 255 256 257 257 257 257 257 257 257 256 257 257 257 257 257 257 258 257 258 258 258 257 256 256 256 258 259 260 260 260 260 261 262
249 249 249 249 250 251 252 254 255 255 255 255 256 256 256 256 257 257 257 257 257 258 258 258 258 258 258 258 258 258 257 256 256 256 257 258 259 260 261 261 261 261 262
250 249 249 249 250 251 253 254 255 255 254 254 255 255 255 256 256 257 258 258 258 258 258 258 258 258 258 258 259 259 257 256 256 256 257 258 260 261 261 262 262 262 262
251 251 250 250 250 251 253 253 254 254 254 254 254 254 255 255 255 256 257 257 258 259 259 258 259 259 259 259 259 259 258 257 257 257 257 258 259 260 261 262 262 262 262
251 251 251 251 252 252 253 253 253 253 254 254 253 253 254 254 255 257 257 258 259 260 259 259 260 260 260 260 260 259 258 258 257 256 257 257 258 259 260 261 261 262 262
251 251 251 250 251 252 252 252 252 253 253 253 253 253 253 254 256 257 258 258 259 259 260 261 261 261 261 261 260 259 257 257 256 256 257 257 258 259 260 260 261 262 262
251 251 251 251 251 251 252 253 252 252 252 253 252 253 253 254 256 257 258 258 259 260 261 261 261 261 261 261 260 259 257 257 256 256 257 258 258 258 259 260 261 262 261
Height
5824 5825 5826 5827 5827 5828 5829 5830 5830 5831 5832 5832 5833 5833 5834 5835 5835 5836 5836 5836 5837 5837 5837 5838 5838 5838 5839 5839 5840 5840 5841 5841 5842 5842 5843 5843 5844 5844 5845 5845 5845 5846 5846
5822 5823 5824 5824 5825 5826 5827 5827 5828 5829 5830 5830 5831 5831 5832 5833 5833 5834 5834 5834 5835 5835 5835 5836 5836 5837 5837 5838 5839 5839 5840 5840 5841 5841 5842 5842 5842 5843 5843 5844 5844 5845 5845
5819 5820 5821 5822 5822 5823 5824 5825 5826 5827 5827 5828 5828 5829 5830 5830 5831 5831 5832 5832 5833 5833 5833 5834 5835 5835 5836 5836 5837 5837 5838 5838 5839 5840 5840 5841 5841 5842 5842 5843 5843 5843 5844
5816 5817 5818 5819 5820 5820 5821 5822 5823 5824 5825 5825 5826 5827 5827 5828 5829 5829 5830 5830 5831 5831 5831 5832 5832 5833 5834 5834 5835 5835 5836 5837 5837 5838 5838 5839 5839 5840 5840 5841 5841 5842 5842
5812 5813 5814 5816 5817 5817 5818 5819 5820 5821 5822 5823 5823 5824 5824 5825 5826 5826 5827 5828 5828 5829 5829 5830 5830 5831 5831 5832 5833 5833 5834 5834 5835 5836 5836 5837 5837 5838 5839 5839 5839 5840 5840
5809 5810 5811 5812 5813 5814 5815 5816 5817 5818 5819 5819 5820 5821 5821 5822 5822 5823 5824 5825 5825 5826 5827 5827 5828 5828 5829 5830 5830 5831 5831 5832 5832 5833 5834 5834 5835 5836 5836 5837 5837 5838 5838
5804 5806 5807 5808 5809 5810 5811 5812 5813 5814 5815 5816 5816 5817 5818 5818 5819 5820 5820 5821 5822 5823 5824 5824 5825 5825 5826 5827 5827 5828 5828 5829 5830 5831 5831 5832 5833 5833 5834 5835 5835 5835 5836
5800 5801 5802 5804 5805 5806 5807 5808 5809 5810 5811 5812 5812 5813 5814 5815 5815 5816 5817 5817 5818 5819 5820 5821 5822 5822 5823 5824 5824 5825 5825 5826 5827 5827 5828 5829 5830 5830 5831 5832 5832 5833 5833
5795 5797 5798 5799 5800 5802 5803 5804 5805 5806 5807 5807 5808 5809 5810 5810 5811 5812 5812 5813 5814 5815 5816 5817 5818 5818 5819 5820 5821 5822 5822 5823 5823 5824 5825 5826 5826 5827 5828 5829 5829 5830 5830
5790 5792 5793 5794 5795 5797 5798 5799 5800 5801 5802 5802 5803 5804 5805 5806 5806 5807 5808 5808 5809 5810 5811 5812 5813 5814 5815 5816 5817 5818 5818 5819 5819 5820 5821 5822 5823 5823 5824 5825 5825 5826 5827
5785 5786 5787 5789 5790 5791 5792 5793 5794 5795 5796 5797 5798 5799 5800 5800 5801 5802 5802 5803 5804 5805 5806 5807 5808 5809 5810 5811 5812 5813 5814 5814 5815 5816 5817 5817 5818 5819 5820 5820 5821 5822 5823
5779 5780 5781 5783 5784 5785 5786 5787 5788 5789 5790 5791 5792 5793 5794 5795 5795 5796 5797 5798 5798 5799 5800 5801 5802 5804 5805 5806 5807 5808 5809 5809 5810 5811 5812 5813 5813 5814 5815 5816 5817 5818 5818
5772 5774 5775 5776 5777 5778 5780 5781 5782 5783 5784 5785 5786 5786 5787 5788 5789 5790 5791 5792 5792 5793 5794 5795 5796 5797 5799 5800 5801 5802 5803 5804 5805 5806 5807 5807 5808 5809 5809 5810 5811 5812 5813
5765 5766 5768 5769 5770 5771 5772 5774 5774 5775 5777 5778 5779 5779 5780 5781 5782 5783 5784 5785 5786 5787 5788 5789 5790 5791 5792 5793 5795 5796 5797 5798 5799 5800 5801 5802 5802 5803 5804 5804 5805 5806 5808
5757 5759 5760 5761 5763 5764 5765 5766 5767 5768 5769 5770 5771 5772 5773 5774 5775 5776 5777 5778 5779 5780 5781 5782 5783 5784 5785 5787 5788 5789 5790 5791 5792 5793 5794 5795 5796 5796 5797 5798 5799 5800 5801
5749 5750 5752 5753 5754 5755 5757 5758 5759 5760 5761 5762 5763 5764 5765 5766 5767 5768 5769 5770 5771 5772 5773 5775 5776 5777 5778 5779 5780 5782 5783 5784 5785 5786 5787 5788 5788 5789 5790 5791 5792 5793 5794
5740 5741 5743 5744 5745 5747 5748 5749 5750 5751 5752 5753 5754 5755 5756 5757 5758 5760 5761 5762 5763 5764 5765 5766 5768 5769 5770 5771 5772 5773 5775 5776 5777 5778 5779 5780 5781 5781 5782 5783 5784 5785 5786
5730 5732 5733 5735 5736 5738 5739 5740 5741 5742 5743 5744 5745 5746 5747 5748 5749 5750 5752 5753 5754 5755 5756 5758 5759 5760 5761 5763 5764 5765 5766 5767 5768 5769 5770 5771 5772 5773 5774 5775 5776 5777 5778
5720 5722 5723 5725 5727 5728 5729 5730 5731 5732 5733 5734 5735 5736 5737 5738 5739 5740 5741 5743 5744 5745 5747 5748 5750 5751 5752 5753 5754 5756 5757 5758 5759 5760 5761 5762 5764 5765 5766 5767 5768 5768 5770
5710 5712 5713 5715 5717 5718 5719 5720 5721 5722 5723 5724 5725 5726 5726 5727 5728 5729 5731 5732 5733 5735 5736 5738 5739 5741 5742 5743 5744 5746 5747 5748 5749 5750 5752 5753 5755 5756 5757 5758 5759 5760 5761
5699 5701 5703 5705 5706 5708 5709 5710 5711 5712 5713 5714 5715 5716 5717 5717 5718 5719 5720 5722 5723 5724 5726 5727 5729 5730 5731 5733 5734 5735 5737 5738 5739 5741 5742 5744 5745 5746 5747 5748 5750 5751 5752
5688 5690 5692 5694 5695 5697 5698 5700 5701 5702 5703 5704 5705 5706 5707 5708 5708 5709 5711 5712 5713 5714 5715 5716 5718 5719 5721 5722 5723 5724 5726 5728 5729 5730 5732 5733 5735 5736 5737 5738 5739 5741 5742
5676 5678 5680 5682 5684 5685 5687 5688 5689 5690 5691 5693 5694 5695 5697 5698 5699 5699 5701 5702 5703 5704 5705 5706 5707 5708 5709 5711 5712 5713 5715 5717 5718 5720 5721 5722 5724 5725 5726 5727 5729 5730 5731
5664 5666 5668 5670 5672 5673 5675 5676 5678 5679 5681 5683 5684 5685 5686 5688 5689 5689 5690 5691 5692 5693 5695 5695 5696 5697 5698 5699 5700 5701 5703 5704 5706 5708 5710 5711 5712 5714 5715 5716 5718 5719 5720
5652 5654 5656 5658 5660 5662 5663 5665 5666 5668 5670 5671 5672 5674 5675 5677 5678 5679 5680 5681 5682 5683 5684 5685 5685 5686 5686 5687 5688 5690 5691 5693 5694 5696 5698 5700 5701 5702 5703 5705 5706 5708 5709
5639 5641 5643 5645 5647 5649 5651 5653 5654 5656 5658 5659 5661 5662 5664 5665 5667 5668 5669 5670 5671 5672 5673 5673 5674 5674 5675 5675 5676 5677 5679 5681 5682 5684 5686 5688 5689 5691 5692 5693 5694 5696 5697